• MPC Preparation (Info)

  • MPEC 2019-G08 : 2019 FQ2

    The following Minor Planet Electronic Circular may be linked-to from your own Web pages, but must not otherwise be redistributed electronically.

    A form allowing access to any MPEC is at the bottom of this page.


    Read MPEC 2019-G07 Read MPEC 2019-G09


    M.P.E.C. 2019-G08                                Issued 2019 Apr. 1, 20:33 UT
    
         The Minor Planet Electronic Circulars contain information on unusual
             minor planets and routine data on comets.  They are published
        on behalf of Division F of the International Astronomical Union by the
              Minor Planet Center, Smithsonian Astrophysical Observatory,
                              Cambridge, MA 02138, U.S.A.
    
                 Prepared using the Tamkin Foundation Computer Network
    
                                  MPC@CFA.HARVARD.EDU
                URL https://www.minorplanetcenter.net/    ISSN 1523-6714
    
                                       2019 FQ2
    
    Observations:
         K19F02Q* C2019 03 31.27783 12 21 14.45 -06 32 30.1          20.1 GVEG008G96
         K19F02Q  C2019 03 31.28299 12 21 22.34 -06 33 06.2          19.9 GVEG008G96
         K19F02Q  C2019 03 31.28815 12 21 30.25 -06 33 42.6          20.0 GVEG008G96
         K19F02Q  C2019 03 31.29331 12 21 38.12 -06 34 18.9          19.8 GVEG008G96
         K19F02Q  C2019 03 31.39366 12 24 11.81 -06 45 58.2          19.9 GVEG008I52
         K19F02Q  C2019 03 31.39439 12 24 12.93 -06 46 02.8          19.6 GVEG008I52
         K19F02Q  C2019 03 31.39512 12 24 14.02 -06 46 07.6          20.4 GVEG008I52
         K19F02Q  C2019 03 31.39585 12 24 15.20 -06 46 13.0          19.8 GVEG008I52
         K19F02Q  C2019 03 31.87201 12 37 18.18 -07 41 18.9          20.2 VVEG008033
         K19F02Q  C2019 03 31.87274 12 37 19.30 -07 41 23.7          20.0 VVEG008033
         K19F02Q  C2019 03 31.87346 12 37 20.39 -07 41 28.1          19.7 VVEG008033
         K19F02Q  C2019 03 31.87419 12 37 21.51 -07 41 33.0          19.6 VVEG008033
         K19F02Q  C2019 03 31.87491 12 37 22.63 -07 41 38.0          20.0 VVEG008033
         K19F02Q  C2019 03 31.87564 12 37 23.74 -07 41 43.1          20.1 VVEG008033
         K19F02Q  C2019 03 31.87635 12 37 24.85 -07 41 48.1          19.9 VVEG008033
         K19F02Q  C2019 03 31.87708 12 37 25.95 -07 41 52.8          20.0 VVEG008033
         K19F02Q  C2019 03 31.87780 12 37 27.06 -07 41 57.5          20.0 VVEG008033
         K19F02Q pC2019 03 31.89340212 37 51.12 -07 43 26.2          20.2 GVEG008L01
         K19F02Q KC2019 03 31.89439412 37 52.62 -07 43 33.2          20.2 GVEG008L01
         K19F02Q pC2019 03 31.89578212 37 54.71 -07 43 42.5          20.1 GVEG008L01
         K19F02Q IC2019 03 31.89944212 38 00.24 -07 44 06.4          20.3 GVEG008L01
         K19F02Q  C2019 04 01.19270 12 45 49.50 -08 15 04.2                VEG008I52
         K19F02Q  C2019 04 01.19343 12 45 50.62 -08 15 10.4          19.5 GVEG008I52
         K19F02Q  C2019 04 01.19416 12 45 51.75 -08 15 13.8          19.9 GVEG008I52
         K19F02Q  C2019 04 01.19489 12 45 52.93 -08 15 19.4          21.2 GVEG008I52
         K19F02Q KC2019 04 01.25695 12 47 23.05 -08 21 56.6                oEG008711
         K19F02Q IC2019 04 01.25937 12 47 26.59 -08 22 09.5                oEG008711
         K19F02Q KC2019 04 01.26181 12 47 30.21 -08 22 26.6                oEG008711
         K19F02Q KC2019 04 01.26373912 47 28.52 -08 23 11.4          20.2 VuEG008H21
         K19F02Q KC2019 04 01.26779412 47 34.48 -08 23 37.1          20.2 VuEG008H21
         K19F02Q KC2019 04 01.27156512 47 40.02 -08 24 00.8          20.1 VuEG008H21
         K19F02Q KC2019 04 01.45941512 52 39.87 -08 37 22.2          19.9 GVEG008474
         K19F02Q KC2019 04 01.46065312 52 41.63 -08 37 29.3          19.5 GVEG008474
         K19F02Q KC2019 04 01.46189112 52 43.52 -08 37 37.6          19.8 GVEG008474
         K19F02Q KC2019 04 01.46313012 52 45.32 -08 37 44.8          20.0 GVEG008474
         K19F02Q KC2019 04 01.46436812 52 47.08 -08 37 53.1          19.4 GVEG008474
    
    Observer details:
    033 Karl Schwarzschild Observatory, Tautenburg.  Observers U. Laux,
        B. Stecklum.  Measurer B. Stecklum.  1.34-m f/3 Schmidt + CCD.
    474 Mount John Observatory, Lake Tekapo.  Observers A. C. Gilmore,
        P. M. Kilmartin.  Measurer P. M. Kilmartin.  1.0-m f/7.7 reflector + CCD.
    711 McDonald Observatory, Fort Davis.  Observer J. G. Ries.  2.1-m reflector
        + CCD + focal reducer.
    G96 Mt. Lemmon Survey.  Observer D. C. Fuls.  Measurers B. M. Africano,
        E. J. Christensen, G. A. Farneth, D. C. Fuls, A. R. Gibbs, A. D. Grauer,
        H. Groeller, R. A. Kowalski, S. M. Larson, G. J. Leonard, T. A. Pruyne,
        R. L. Seaman, F. C. Shelly.  1.5-m reflector + 10K CCD.
    H21 Astronomical Research Observatory, Westfield.  Observer R. Holmes.
        Measurers S. Foglia, L. Buzzi, T. Linder, R. Holmes.  0.61-m f/4.5
        astrograph + CCD.
    I52 Steward Observatory, Mt. Lemmon Station.  Observer H. Groeller.
        Measurers B. M. Africano, E. J. Christensen, G. A. Farneth, D. C. Fuls,
        A. R. Gibbs, A. D. Grauer, H. Groeller, R. A. Kowalski, S. M. Larson,
        G. J. Leonard, T. A. Pruyne, R. L. Seaman, F. C. Shelly.  1.0-m reflector
        + CCD.
    L01 Visnjan Observatory, Tican.  Observer K. Korlevic.  1.0-m f/2.9 reflector
        + CCD.
    
    Orbital elements:
    2019 FQ2                                                 Earth MOID = 0.0291 AU
    Epoch 2019 Apr. 27.0 TT = JDT 2458600.5                 MPC
    M  10.56932              (2000.0)            P               Q
    n   0.31306122     Peri.  346.33906     -0.99954273     +0.02973333
    a   2.1480771      Node   195.36797     -0.02542598     -0.92491153
    e   0.5225896      Incl.    1.18918     -0.01636586     -0.37901794
    P   3.15           H   27.3           G   0.15           U   6
    Residuals in seconds of arc
    190331 G96  0.2+  0.3-    190331 033  0.1+  0.1+    190401 I52  1.2+  0.1-
    190331 G96  0.1+  0.1+    190331 033  0.0   0.1-    190401 711  0.4+  0.6-
    190331 G96  0.3+  0.1+    190331 033  0.3+  0.3-    190401 711 (0.3+  2.0+)
    190331 G96  0.0   0.2+    190331 033  0.1+  0.1-    190401 711  1.1+  0.5+
    190331 I52  0.0   0.3-    190331 033  0.2+  0.0     190401 H21  0.2+  0.0
    190331 I52  0.1-  0.1+    190331 L01  0.1+  0.2+    190401 H21  0.1+  0.1-
    190331 I52  0.6-  0.3+    190331 L01  0.0   0.2-    190401 H21  0.0   0.0
    190331 I52  0.2+  0.1-    190331 L01  0.2-  0.2-    190401 474  0.2+  0.3-
    190331 033  0.0   0.3-    190331 L01  0.4-  0.4+    190401 474  0.7-  0.3+
    190331 033  0.0   0.2-    190401 I52  1.2-  0.8+    190401 474  0.4+  0.2-
    190331 033  0.2-  0.2+    190401 I52  0.7-  0.7-    190401 474  0.1+  0.4+
    190331 033  0.2-  0.2+    190401 I52  0.2-  0.7+    190401 474  0.7-  0.2-
    
    Ephemeris:
    2019 FQ2                 a,e,i = 2.15, 0.52, 1                   q = 1.0255
    Date    TT    R. A. (2000) Decl.     Delta      r     Elong.  Phase     V
    2019 03 02    07 16 34.0 +14 52 59   0.1086  1.0605   127.4    47.9    24.4
    ...
    2019 03 17    08 07 03.4 +12 04 10   0.05788 1.0292   125.1    52.3    23.1
    ...
    2019 03 25    09 44 50.1 +05 31 21   0.03570 1.0254   142.1    36.7    21.6
    ...
    2019 03 31    12 13 35.9 -05 56 22   0.03018 1.0288   174.1     5.7    20.2
    2019 04 01    12 40 33.4 -07 51 18   0.03086 1.0299   176.4     3.5    20.1
    2019 04 02    13 06 11.7 -09 33 33   0.03199 1.0311   172.4     7.3    20.4
    ...
    2019 04 08    14 56 43.6 -15 07 59   0.04555 1.0413   151.4    27.4    21.9
    ...
    2019 04 16    15 59 28.2 -16 44 02   0.07201 1.0625   144.1    33.6    23.1
    ...
    2019 05 01    16 31 54.6 -17 02 21   0.1299  1.1226   150.8    26.0    24.3
    
    A. U. Tomatic                (C) Copyright 2019 MPC           M.P.E.C. 2019-G08
    

    Read MPEC 2019-G07 Read MPEC 2019-G09


    MPEC number:

    Enter an MPEC number in one of the following forms:

    • 1997-B01 (the full form)
    • J97B01 (the packed version of the full form)
    • B01 (the abbreviated form)